sat.trackr.live / text

‹ back to catalog

STARLINK-34351

NORAD 64387 · 2025-127T

PAYLOAD ACTIVE UNKNOWN

§ Identity

Operator
Country
US
Launch date
2025-06-13
Launch site
AFETR
Launch vehicle
Mass (kg)
RCS (m²)

Purposes: comms

External: N2YO · Heavens-Above · Gunter

§ Orbital elements

Epoch: 2026-05-24T08:36:10.840320Z

Period
94.27 min
Inclination
43.0028°
Eccentricity
0.0001133
Mean motion
15.27581289 rev/d
Perigee alt
482.3 km
Apogee alt
483.8 km
Semi-major
6,861.2 km
B*
2.4059e-4
RAAN
112.0947°
Arg perigee
283.8149°
Mean anomaly
76.2576°
Rev number
5,404

§ Raw data

STARLINK-343511 64387U 25127T   26144.35845880  .00006364  00000+0  24059-3 0  99942 64387  43.0028 112.0947 0001133 283.8149  76.2576 15.27581289 54048

JSON: /api/v1/satellites/64387 · /tle

For live sub-satellite position, see the globe view (requires WebGL).

§ Visibility from observer

Set your observer location to see the next 7 days of passes ≥ 10°. The values pass through the URL so the page stays shareable.

No JS? Fill the form by hand. The geolocation button needs JavaScript.